VIASAT-1

Last updated on Tue Sep 22 2026 00:03:12 GMT+0000 (Coordinated Universal Time)

1 37843U 11059A 26264.50524405 -.00000027 00000+0 00000+0 0 9994 2 37843 0.0181 210.5252 0002343 318.5744 258.0830 1.00269970 48280
UTC large
Height (km)
Speed (km/s)
/
Latitude / Longitude
Inclination (degrees)
Orbital Period (minutes)
Azimuth
Elevation
Range (km)
Doppler Factor

Next 0 passes for location: London (51.5072 / 0.1276)

No passes found over London.
VIASAT-1